CAPE
0 0 0 0 0 0 0 0 0 0 0 0 0 0 0 0 0 0 0 0 0 0 0 0 0 0 0 0 0 0 0 17 32 65 9 33 3 0 4 3 13 26 55 63 97
0 0 0 0 0 0 0 0 0 0 0 0 0 0 0 0 0 0 0 0 0 0 0 0 0 0 0 0 0 0 0 10 30 25 9 26 34 25 9 0 0 542 158 132 46
0 0 0 0 0 0 0 0 0 0 0 0 0 0 0 0 0 0 0 0 0 0 0 0 0 0 0 0 0 0 64 94 86 60 18 15 1 11 8 0 0 442 170 201 100
0 0 0 0 0 0 0 0 0 0 0 0 0 0 0 0 0 0 0 0 0 0 0 0 0 0 0 0 6 74 96 94 69 25 6 0 0 0 4 0 34 312 64 5 18
0 0 0 0 0 0 0 0 0 0 0 0 0 0 0 0 0 0 0 0 0 0 0 0 0 0 0 8 37 44 29 0 8 0 4 17 0 4 1 23 731 288 260 148 115
0 0 0 0 0 0 0 0 0 0 0 0 0 0 0 0 0 0 0 0 0 0 0 0 0 0 0 11 0 1 4 58 16 5 2 192 22 85 104 61 1088 770 660 602 1006
0 0 0 0 0 0 0 0 0 0 0 0 0 0 0 0 0 0 0 0 0 0 0 0 0 0 0 0 0 0 0 0 3 16 0 158 204 340 441 553 761 964 1124 1325 1474
0 0 0 0 0 0 0 0 0 0 0 0 0 0 0 0 0 0 0 0 0 0 0 0 0 0 0 0 1 0 0 1 32 39 10 90 324 369 514 440 930 1194 1276 1240 905
0 0 0 0 0 0 0 0 0 0 0 0 0 0 0 0 0 0 0 0 0 0 0 0 0 0 0 0 0 0 0 2 0 1 161 195 62 62 196 342 809 560 184 925 659
0 0 0 0 0 0 0 0 0 0 0 0 0 0 0 0 0 0 0 0 0 0 0 0 0 0 0 1 0 0 2 3 0 103 14 0 1 7 34 204 6 0 744 717 659
0 0 0 0 0 0 0 0 0 0 0 0 0 0 0 0 0 0 0 0 0 0 0 0 0 0 0 28 0 1 33 53 32 16 13 11 18 0 2 6 111 207 645 670 480
0 0 0 0 0 0 0 0 0 0 0 0 0 0 0 0 0 0 0 0 0 0 0 0 0 0 12 0 2 2 19 17 90 82 41 34 0 0 21 116 124 0 4 489 192
0 0 0 0 0 0 0 0 0 0 0 0 0 0 0 0 0 0 0 0 0 0 0 0 0 3 0 0 1 6 0 11 9 1 0 4 0 0 0 0 0 59 97 171 68
0 0 0 0 0 0 0 0 0 0 0 0 0 0 0 0 0 0 0 0 0 0 0 0 1 0 1 0 0 0 44 43 79 33 30 7 7 1 4 0 0 11 19 0 22
0 0 0 0 0 0 0 0 0 0 0 0 0 0 0 0 0 0 0 0 0 0 0 0 1 4 0 0 0 3 8 13 48 5 44 28 0 6 0 0 2 94 0 0 0
0 0 0 0 0 0 0 0 0 0 0 0 0 0 0 0 0 0 0 0 0 0 0 0 0 0 0 0 0 0 1 31 0 18 0 2 0 0 0 0 11 109 23 8 0
0 0 0 0 0 0 0 0 0 0 0 0 0 0 0 0 0 0 0 0 0 0 0 0 0 0 0 0 0 0 0 0 68 93 0 0 0 11 0 8 21 46 4 0 0
0 0 0 0 0 0 0 0 0 0 0 0 0 0 0 0 0 0 0 0 0 0 0 0 5 0 0 0 0 0 0 1 2 0 0 0 103 83 38 9 27 0 0 0 0
0 0 0 0 0 0 0 0 0 0 0 0 0 0 0 0 0 0 0 0 0 0 0 0 0 0 0 0 0 0 0 0 0 0 17 200 167 99 91 51 7 0 0 0 0
0 0 0 0 0 0 0 0 0 0 0 0 0 0 0 0 0 0 0 0 0 4 16 0 2 2 0 0 0 0 0 6 0 0 60 29 150 56 110 66 10 0 1 0 0
0 0 0 0 0 0 0 0 0 0 0 0 0 0 0 0 0 0 0 0 0 25 18 0 0 1 15 17 4 0 0 0 0 0 4 33 2 0 52 42 39 0 0 0 0
0 0 0 0 0 0 0 0 0 0 0 0 0 0 0 0 0 0 0 0 0 0 0 3 0 3 2 4 0 0 0 0 0 0 1 31 19 94 174 32 0 0 0 0 0
0 0 0 0 0 0 0 0 0 0 0 0 0 0 0 0 0 0 2 0 0 1 0 30 0 0 0 0 18 29 0 0 0 0 0 26 112 49 64 25 10 0 4 0 0
0 0 0 0 0 0 0 0 0 0 0 0 0 0 0 0 0 7 0 0 0 10 0 0 0 0 0 0 0 4 0 0 0 0 0 14 83 69 45 24 0 0 7 0 0
0 0 0 0 0 0 0 0 0 0 0 0 0 0 0 0 0 0 8 2 28 11 14 0 0 0 0 7 0 0 0 0 0 0 11 93 69 89 84 0 0 2 8 0 0
0 0 0 0 0 0 0 0 0 0 0 0 0 0 0 0 0 0 11 0 0 3 14 44 0 0 6 0 57 0 0 0 0 0 37 65 106 14 126 31 11 4 0 0 0
0 0 0 0 0 0 0 0 0 0 0 7 2 3 34 0 0 0 0 0 2 0 7 3 0 0 7 11 48 71 1 0 0 2 14 3 11 0 61 82 0 0 0 0 0
CIN
0 0 0 0 0 0 0 0 0 0 0 0 0 0 0 0 0 0 0 0 0 0 0 0 0 0 0 0 0 0 -1 -23 -86 -92 -196 -235 -29 -46 -156 -33 -88 -22 -93 -278 -269
0 0 0 0 0 0 0 0 0 0 0 0 0 0 0 0 0 0 0 0 0 0 0 0 0 0 0 0 0 0 -19 -34 -98 -251 -257 -210 -161 -143 -133 0 0 -126 -277 -290 -246
0 0 0 0 0 0 0 0 0 0 0 0 0 0 0 0 0 0 0 0 0 0 0 0 0 0 0 0 0 0 -67 -100 -206 -239 -207 -194 -35 -243 -131 0 -15 -151 -218 -197 -150
0 0 0 0 0 0 0 0 0 0 0 0 0 0 0 0 0 0 0 0 0 0 0 0 0 0 0 0 -31 -47 -138 -172 -191 -233 -203 0 0 -36 -127 0 -77 -187 -223 -202 -217
0 0 0 0 0 0 0 0 0 0 0 0 0 0 0 0 0 0 0 0 0 0 0 0 0 0 0 -40 -39 -82 -141 0 -81 0 -202 -77 0 -378 -227 -110 -54 -195 -179 -203 -203
0 0 0 0 0 0 0 0 0 0 0 0 0 0 0 0 0 0 0 0 0 0 0 0 0 0 0 -42 0 -129 -54 -106 -125 -103 -62 -74 -200 -125 -80 -146 -62 -77 -112 -131 -55
0 0 0 0 0 0 0 0 0 0 0 0 0 0 0 0 0 0 0 0 0 0 0 0 0 0 0 0 0 -5 0 -8 -77 -86 0 -66 -47 -46 -71 -66 -47 -66 -52 -24 -15
0 0 0 0 0 0 0 0 0 0 0 0 0 0 0 0 0 0 0 0 0 0 0 0 0 0 0 0 -51 -16 -12 -57 -103 -72 -65 -89 -19 -71 -72 -66 -67 -52 -28 -32 -49
0 0 0 0 0 0 0 0 0 0 0 0 0 0 0 0 0 0 0 0 0 0 0 0 0 0 0 0 0 0 0 -60 0 -19 -46 -62 -123 -223 -174 -135 -94 -129 -190 -45 -99
0 0 0 0 0 0 0 0 0 0 0 0 0 0 0 0 0 0 0 0 0 0 0 0 0 0 0 -22 0 0 -15 -51 -14 -64 -11 0 -52 -333 -232 -164 -53 -7 -73 -53 -95
0 0 0 0 0 0 0 0 0 0 0 0 0 0 0 0 0 0 0 0 0 0 0 0 0 0 0 -31 0 -6 -37 -20 -35 -169 -160 -93 -209 0 -305 -350 -127 -47 -17 -37 -87
0 0 0 0 0 0 0 0 0 0 0 0 0 0 0 0 0 0 0 0 0 0 0 0 0 0 -11 -2 -8 -4 -20 -62 -230 -263 -183 -223 0 0 -254 -184 -218 0 -119 -23 -79
0 0 0 0 0 0 0 0 0 0 0 0 0 0 0 0 0 0 0 0 0 0 0 0 0 -6 0 -3 -5 -10 0 -61 -144 -335 -41 -120 0 0 0 0 0 -86 -175 -41 -117
0 0 0 0 0 0 0 0 0 0 0 0 0 0 0 0 0 0 0 0 0 0 0 -6 -6 0 -3 0 0 0 -56 -65 -78 -79 -107 -124 -138 -283 -312 0 0 -17 -57 -3 -185
0 0 0 0 0 0 0 0 0 0 0 0 0 0 0 0 0 0 0 0 0 0 0 -1 -17 -11 0 0 0 -57 -114 -67 -69 -90 -184 -173 0 -262 0 0 -67 -108 -2 0 0
0 0 0 0 0 0 0 0 0 0 0 0 0 0 0 0 0 0 0 0 0 0 0 0 -3 -2 0 0 0 0 -68 -75 0 -136 0 -143 0 0 0 0 -48 -45 -27 -23 0
0 0 0 0 0 0 0 0 0 0 0 0 0 0 0 0 0 0 0 0 0 0 0 0 0 0 0 0 0 0 0 0 -22 -50 0 0 0 -78 0 -97 -88 -27 -4 0 0
0 0 0 0 0 0 0 0 0 0 0 0 0 0 0 0 0 0 0 0 0 0 0 0 -11 -4 0 0 0 0 0 -3 -5 0 -4 0 -28 -26 -51 -92 -70 0 0 0 0
0 0 0 0 0 0 0 0 0 0 0 0 0 0 0 0 0 0 0 0 0 0 0 -2 -7 -1 0 0 0 0 0 0 0 0 -59 -87 -75 -40 -59 -60 -34 0 0 0 0
0 0 0 0 0 0 0 0 0 0 0 0 0 0 0 0 0 0 0 0 0 -8 -29 0 -25 -23 0 0 0 0 0 -18 0 0 -12 -96 -55 -32 -34 -36 -29 0 -19 0 0
0 0 0 0 0 0 0 0 0 0 0 0 0 0 0 0 0 0 0 0 0 -35 -22 0 0 -2 -27 -57 -75 0 0 0 0 0 -38 -31 -50 0 -103 -44 -39 0 0 0 0
0 0 0 0 0 0 0 0 0 0 0 0 0 0 0 0 0 0 0 0 0 0 0 -21 0 -26 -33 -69 0 -3 0 0 0 0 -13 -35 -45 -58 -39 -53 0 0 0 0 0
0 0 0 0 0 0 0 0 0 0 0 0 0 0 0 0 0 0 -15 0 0 -17 0 -38 0 0 -20 0 -29 -31 0 0 0 0 0 -57 -15 -48 -110 -189 -193 0 -56 0 0
0 0 0 0 0 0 0 0 0 0 0 0 0 0 0 0 0 -14 -2 0 -16 -104 0 0 0 0 0 0 0 -18 0 0 0 0 0 -27 -35 -54 -98 -117 0 -2 -44 0 0
0 0 0 0 0 0 0 0 0 0 0 0 0 0 0 0 0 0 -58 -97 -79 -156 -88 0 0 0 -2 -27 0 0 0 0 0 0 -17 -23 -31 -55 -73 0 0 -40 -37 0 0
0 0 0 0 0 0 0 0 0 0 0 0 0 0 0 0 0 0 -69 0 -1 -160 -98 -63 0 0 -20 -1 -6 0 0 0 0 0 -44 -39 -34 -72 -82 -90 -55 -36 0 0 0
0 0 0 0 0 0 0 0 0 0 0 -68 -18 -63 -60 0 0 0 0 0 -91 0 -95 -106 0 0 -24 -73 -16 -3 -5 0 0 -19 -52 -94 -81 0 -37 -69 0 0 0 0 0
Wind_Speed
24 24 23 23 23 23 20 18 17 17 18 17 17 17 17 17 16 17 19 20 21 19 16 17 17 16 14 13 8 11 6 20 19 17 19 24 14 11 6 21 18 20 22 23 22
25 25 25 25 24 24 22 20 18 17 19 19 18 18 17 16 14 19 21 22 19 19 19 19 15 14 15 16 9 10 20 19 17 22 21 20 23 21 7 12 23 25 26 24 21
27 27 26 25 26 26 24 22 18 18 19 20 19 18 17 16 16 20 24 22 20 20 20 16 14 13 11 12 9 10 18 22 20 20 20 21 21 21 17 16 17 20 19 23 24
27 28 28 27 27 27 25 22 21 20 20 20 20 19 19 15 21 20 21 22 21 21 19 13 13 16 12 8 9 22 24 22 18 19 22 21 21 24 18 19 23 21 19 23 23
28 28 28 29 28 27 25 23 22 21 20 21 20 18 14 14 19 21 22 24 23 22 21 15 14 10 9 12 16 17 15 21 21 19 20 21 23 25 16 21 21 25 25 25 25
28 29 29 29 29 28 26 24 23 22 21 20 20 19 17 16 15 16 24 25 24 23 22 15 15 13 12 15 22 18 18 14 17 15 19 21 18 22 22 26 26 27 26 26 27
27 28 28 29 28 26 24 21 23 22 21 20 19 18 19 19 19 21 25 25 24 22 20 17 16 11 10 7 20 19 22 19 16 13 17 21 24 27 30 28 26 28 27 28 27
26 27 27 28 27 27 26 24 23 22 20 20 19 18 20 19 23 23 26 26 24 22 20 19 15 14 8 11 16 20 21 18 17 15 14 16 19 18 21 20 21 23 24 25 26
27 27 27 26 27 27 27 25 24 21 20 20 17 15 19 18 21 28 28 26 23 21 20 18 14 11 6 13 20 20 26 9 13 15 19 21 21 21 13 18 18 22 19 23 26
26 26 26 26 25 26 25 24 22 22 15 19 19 17 18 18 21 28 29 27 23 21 20 18 16 14 6 12 13 15 17 18 14 17 23 24 30 27 22 23 24 20 17 25 27
25 25 25 25 25 25 22 18 18 15 16 17 9 19 16 17 12 25 28 25 25 23 20 18 15 14 10 7 10 18 17 17 21 14 19 23 30 27 25 26 26 24 25 25 26
25 24 24 24 24 23 21 18 17 20 21 23 24 25 23 19 20 28 29 26 25 20 21 16 14 10 16 10 17 22 22 20 22 16 11 14 18 19 22 21 19 20 21 23 25
25 24 24 24 23 21 19 22 23 22 20 23 25 23 22 25 27 31 31 29 23 19 19 16 12 11 16 21 21 21 21 23 18 21 23 19 25 20 8 15 12 22 23 21 24
25 24 23 22 20 19 20 20 21 17 18 18 10 18 19 23 22 31 33 29 22 18 16 15 7 13 15 18 20 24 23 22 17 18 20 20 25 17 18 6 17 16 16 20 24
24 23 23 19 22 18 19 20 20 15 19 4 4 15 4 10 15 23 32 29 23 19 20 8 16 14 16 17 19 14 18 18 20 24 21 29 22 9 11 11 10 14 15 21 22
24 23 22 18 17 18 21 20 17 14 19 7 7 12 11 27 25 20 26 25 23 19 20 18 13 14 15 17 19 22 13 17 20 20 26 19 20 14 13 14 15 13 17 20 23
25 24 22 21 16 21 20 17 11 14 7 4 7 1 6 14 28 16 17 29 23 18 5 18 9 14 16 16 21 24 15 10 19 22 22 19 17 10 11 13 16 16 23 23 24
27 25 23 23 25 22 18 11 12 15 22 2 6 8 2 5 29 27 13 6 27 22 17 10 14 16 16 20 22 20 22 20 14 16 16 14 17 18 15 16 16 20 21 22 22
27 22 20 23 23 21 15 14 13 17 17 9 8 8 3 27 25 24 14 14 28 24 8 8 20 19 17 22 19 16 11 7 10 12 19 18 17 16 16 15 16 19 21 22 22
24 23 25 25 11 15 15 15 15 19 17 14 13 3 1 2 22 22 19 23 29 18 7 14 14 23 10 13 13 4 10 11 19 16 20 18 20 12 8 15 16 18 20 21 22
20 19 10 4 11 17 17 18 20 17 17 17 16 16 13 3 2 22 20 27 17 6 9 10 8 18 15 16 19 21 22 21 14 18 18 16 13 10 13 14 14 18 20 22 22
18 18 8 6 16 19 23 19 18 16 17 19 18 18 17 7 3 18 22 21 12 10 13 13 11 15 17 21 21 20 19 21 18 11 14 20 18 15 17 18 17 18 20 20 21
19 20 12 12 21 23 24 30 31 29 19 15 18 18 21 12 3 15 15 17 11 13 15 17 14 16 21 20 19 15 17 18 15 15 14 21 19 22 21 20 17 16 17 18 19
17 20 16 21 27 24 23 27 30 22 22 20 17 20 19 13 14 10 10 13 14 13 14 14 15 13 15 14 17 15 12 11 14 18 23 23 21 17 14 11 12 13 13 17 18
16 20 22 20 27 27 28 25 26 22 18 22 21 21 21 17 16 12 9 10 15 17 16 17 14 18 19 23 21 23 19 14 17 20 20 20 21 16 14 14 14 15 16 17 17
20 20 20 23 19 22 30 29 30 25 16 17 23 25 20 21 17 13 10 16 20 16 15 15 14 18 24 23 24 13 23 12 12 15 18 19 20 20 18 17 14 12 16 17 17
18 20 19 21 18 21 29 30 26 27 27 12 16 22 23 28 25 25 21 24 13 10 11 12 13 14 18 20 23 24 19 11 12 14 14 18 17 18 16 12 12 13 15 16 16
Wind_Direction
304 298 293 291 291 286 277 269 266 268 272 273 276 281 280 279 267 184 177 176 161 196 215 214 216 201 202 215 188 159 104 37 60 59 65 60 5 305 271 60 74 70 64 70 65
303 303 298 295 294 291 280 273 267 267 273 275 276 279 277 279 226 191 180 179 189 181 184 180 197 237 231 237 224 129 32 8 63 83 77 73 41 27 342 115 82 62 65 51 25
305 303 298 295 294 295 283 273 263 266 272 275 276 277 273 264 193 170 168 178 191 180 185 193 218 245 245 248 158 317 47 66 72 73 63 56 43 40 20 68 111 79 66 57 40
306 306 303 299 296 294 284 271 270 267 270 276 277 276 277 180 141 179 189 184 185 191 194 222 258 281 261 248 322 20 53 47 58 60 72 57 50 39 114 123 57 81 68 59 60
302 303 301 302 296 290 285 272 271 266 268 274 277 275 255 198 179 184 183 185 186 183 189 193 257 257 284 307 12 33 22 30 68 69 65 52 47 56 122 146 68 67 61 59 62
297 301 301 301 295 291 285 274 269 267 266 271 276 273 232 182 218 99 166 173 171 164 181 197 249 267 295 347 18 25 22 24 35 56 40 48 73 63 88 102 78 71 68 62 58
296 300 298 294 290 284 278 261 271 264 262 265 271 267 224 183 226 183 168 174 174 171 193 228 269 267 257 214 22 77 45 81 64 73 55 67 69 72 91 85 77 56 50 47 52
293 294 293 291 290 291 286 270 270 262 256 257 267 268 210 224 210 219 182 183 188 197 200 229 246 246 154 133 316 25 45 31 36 71 94 76 55 50 64 57 49 49 46 47 49
292 291 292 289 289 292 290 279 272 252 242 247 269 285 225 248 206 190 185 190 188 200 206 208 206 171 185 84 12 356 24 131 60 87 64 28 18 354 327 27 21 87 71 56 53
291 289 288 286 288 289 283 272 279 285 286 236 230 265 227 219 201 179 188 195 195 195 201 194 202 170 152 88 40 35 60 61 56 50 39 26 24 29 41 23 310 290 113 69 54
286 282 285 289 291 294 293 289 300 309 292 273 332 231 268 226 264 202 186 191 195 208 205 211 199 201 195 112 109 91 70 69 57 79 39 37 13 12 57 40 26 49 61 56 59
284 279 283 287 290 293 290 283 293 289 275 227 210 228 209 248 229 197 191 176 171 165 212 219 192 189 67 78 22 342 355 16 14 15 42 360 35 46 36 52 70 62 48 70 61
289 282 282 288 289 292 290 268 268 275 287 266 213 247 241 202 209 185 172 175 161 175 206 199 201 79 15 2 19 2 1 1 33 33 43 41 351 5 59 48 72 65 71 76 58
290 284 280 287 295 299 281 275 277 306 293 288 300 269 267 168 233 196 185 187 184 182 212 242 54 0 357 355 347 13 30 38 60 30 26 27 11 14 356 61 53 70 58 64 52
292 284 279 305 271 291 280 286 309 296 288 9 331 265 311 257 244 230 201 196 202 222 246 214 329 14 20 14 359 40 37 33 12 4 11 353 27 79 64 68 104 65 72 53 56
296 287 287 300 302 209 259 265 275 297 285 354 305 264 258 201 221 238 222 240 231 220 238 213 39 12 7 13 5 344 40 24 18 27 5 24 24 60 78 88 71 80 68 64 58
298 293 291 280 287 266 268 270 293 293 26 45 326 311 256 260 225 258 265 232 188 266 296 269 294 19 13 312 344 314 266 55 25 13 17 64 54 77 109 104 105 93 62 61 53
295 294 286 272 256 262 268 290 269 290 273 8 67 101 202 242 221 239 277 289 217 208 318 269 240 322 28 347 349 284 0 34 42 42 35 70 51 60 102 114 106 86 56 46 43
295 303 293 267 252 256 272 261 270 303 304 320 97 94 278 231 240 246 267 281 208 207 26 26 203 242 354 337 0 286 271 156 70 53 48 51 44 68 93 94 77 64 54 45 57
297 295 271 246 273 264 263 259 289 288 292 285 289 107 61 200 247 258 262 257 234 272 46 340 326 234 15 22 40 173 214 68 39 49 34 45 44 316 104 87 82 61 52 51 60
301 289 309 337 280 256 255 250 280 286 298 275 281 288 299 130 299 257 259 249 274 312 339 49 73 315 347 290 309 306 344 2 60 55 49 47 50 88 141 96 76 64 57 54 50
289 278 305 310 269 254 250 255 272 300 294 269 278 274 284 319 356 258 263 272 271 303 295 321 351 328 321 276 295 288 9 24 59 76 63 47 54 61 96 82 60 59 48 45 45
278 274 299 283 260 248 252 250 254 253 279 281 266 270 277 311 17 280 287 281 286 288 291 297 320 319 286 316 318 19 25 49 74 72 67 42 52 65 63 39 354 47 45 53 50
277 269 280 268 250 248 260 257 251 271 269 276 269 269 279 295 280 335 289 290 289 294 297 302 305 338 330 334 275 344 36 79 70 51 28 43 62 65 64 52 76 59 62 69 52
272 264 286 264 247 245 246 254 257 268 265 264 264 261 263 277 280 308 304 307 292 294 297 290 299 299 310 297 301 292 298 30 22 29 32 53 45 66 75 81 105 74 66 55 53
266 275 277 265 256 242 237 243 247 256 268 273 259 251 271 269 279 302 306 290 285 297 292 289 292 297 287 305 299 350 285 21 34 53 42 41 40 54 79 86 75 65 56 57 50
285 281 272 259 265 247 241 241 247 248 258 275 275 258 268 251 261 267 290 280 303 300 293 295 295 313 302 327 302 293 326 25 21 23 32 25 47 49 58 69 66 62 59 58 52